Список аэропортов
Фактическая погода:

21 января, 13:00
Температура: +19°C (+18.0*)
Ветер: сев.-западный 11 м/с
Давление: *767 мм
Без существ. явл.
Время (МСК)Темп. СВетерВлажностьДавлениеОблачностьОсадки
09:00+15СЗ, 4 м/с50%1024 гПаясно
10:00+15СЗ, 4 м/с53%1025 гПаясно
11:00+15СЗ, 4 м/с54%1025 гПаясно
12:00+16СЗ, 5 м/с49%1025 гПаясно
13:00+18СЗ, 4 м/с42%1025 гПаясно
14:00+20С, 1 м/с40%1024 гПаясно
15:00+20В, 1 м/с39%1024 гПаясно
16:00+21ЮВ, 1 м/с38%1024 гПаясно
17:00+21В, 2 м/с38%1024 гПаясно
18:00+21ЮВ, 4 м/с40%1023 гПамалооблачно
19:00+20ЮВ, 4 м/с46%1024 гПас прояснениями
20:00+18Ю, 4 м/с54%1024 гПаясно
21:00+17Ю, 2 м/с62%1025 гПамалооблачно
22:00+16З, 1 м/с63%1025 гПамалооблачно
23:00+16СЗ, 2 м/с59%1026 гПаясно
22 января
00:00+16СЗ, 3 м/с58%1026 гПаясно
01:00+17СЗ, 5 м/с53%1026 гПаясно
02:00+17СЗ, 6 м/с51%1026 гПаясно
03:00+17СЗ, 5 м/с52%1026 гПаясно
04:00+16СЗ, 5 м/с53%1026 гПаясно
05:00+16СЗ, 5 м/с53%1026 гПаясно
06:00+16СЗ, 5 м/с52%1025 гПаясно
07:00+16СЗ, 5 м/с52%1025 гПаясно
08:00+16СЗ, 4 м/с53%1025 гПаясно
09:00+15СЗ, 4 м/с53%1025 гПаясно
10:00+15СЗ, 3 м/с55%1025 гПаясно
11:00+15З, 3 м/с55%1026 гПаясно
12:00+16З, 4 м/с48%1026 гПаясно
13:00+18З, 4 м/с40%1025 гПаясно
14:00+20З, 4 м/с36%1025 гПаясно
15:00+22З, 4 м/с34%1024 гПаясно
16:00+23ЮЗ, 4 м/с33%1024 гПаясно
17:00+24ЮЗ, 5 м/с32%1023 гПаясно
18:00+24ЮЗ, 4 м/с31%1022 гПаясно
19:00+24ЮЗ, 4 м/с31%1022 гПаясно
20:00+22З, 5 м/с32%1023 гПаясно
21:00+21З, 4 м/с35%1023 гПаясно
22:00+20З, 5 м/с38%1024 гПаясно
23:00+19СЗ, 5 м/с38%1024 гПаясно
23 января
00:00+18СЗ, 3 м/с40%1025 гПаясно
01:00+17СЗ, 3 м/с41%1025 гПамалооблачно
02:00+17С, 3 м/с44%1026 гПас прояснениями
03:00+15СЗ, 1 м/с52%1026 гПас прояснениями
04:00+15С, 2 м/с55%1026 гПамалооблачно
05:00+14СЗ, 2 м/с55%1026 гПаясно
06:00+14СЗ, 2 м/с54%1026 гПаясно
07:00+13СЗ, 3 м/с57%1026 гПаясно
08:00+13СЗ, 3 м/с58%1027 гПаясно
09:00+12СЗ, 2 м/с62%1027 гПаясно